Flag for U.S.A. Weather past 2 weeks in St. Louis, Missouri, U.S.A.

Now
37 °F

Overcast.


Feels Like: 29 °F
Forecast: 28 / 39 °F
Wind: 12 mph from Northwest

Location: Lambert-St. Louis International Airport

Current Time: Jan 29, 2015 at 11:54:33 PM

Latest Report: Jan 29, 2015 at 10:51 PM


Visibility: 10 mi

Pressure: 30.45 "Hg

Humidity: 62%

Dew point: 25 °F

Location of St. LouisLocation

Historic Weather in St. Louis — Graph

°F

St. Louis temperature yesterday

Maximum temperature yesterday: 52 °F (at 11:51 PM)
Minimum temperature yesterday: 29 °F (at 12:51 AM)
Average temperature yesterday: 40 °F

Past Weeks' High & Low Weather Summary

 TemperatureHumidityPressure
High62 °F (Jan 17, 12:51 PM)89% (Jan 25, 1:51 PM)30.53 "Hg (Jan 25, 1:51 PM)
Low22 °F (Jan 15, 3:51 AM)31% (Jan 18, 2:51 PM)29.58 "Hg (Jan 25, 8:51 AM)
Average40 °F64%30.06 "Hg
* Reported Jan 14 9:51 PM — Jan 29 9:51 PM, St. Louis, Weather by CustomWeather, © 2014

Note: Actual official high and low records may vary slightly from our data, if they occured in-between our weather recording intervals... More about our weather records

Advertising

St. Louis weather history for previous 24 hours

 ConditionsComfort  
Time TempWeatherWind HumidityBarometerVisibility
9:51 PM
Jan 29
37 °FOvercast.12 mph62%30.44 "Hg10 mi
8:51 PM37 °FOvercast.14 mph65%30.42 "Hg10 mi
7:51 PM38 °FOvercast.15 mph65%30.41 "Hg10 mi
6:51 PM38 °FOvercast.24 mph65%30.38 "Hg10 mi
5:51 PM39 °FMostly cloudy.15 mph67%30.34 "Hg10 mi
4:51 PM41 °FOvercast.20 mph65%30.29 "Hg10 mi
3:51 PM42 °FOvercast.18 mph62%30.25 "Hg10 mi
2:51 PM42 °FOvercast.16 mph65%30.22 "Hg10 mi
1:51 PM42 °FOvercast.16 mph65%30.18 "Hg10 mi
12:51 PM43 °FOvercast.16 mph60%30.16 "Hg10 mi
11:51 AM42 °FOvercast.14 mph62%30.16 "Hg10 mi
10:58 AM43 °FMore clouds than sun.15 mph61%30.14 "Hg10 mi
9:51 AM40 °FOvercast.16 mph68%30.12 "Hg9 mi
8:51 AM41 °FOvercast.21 mph65%30.08 "Hg9 mi
7:51 AM42 °FOvercast.18 mph68%30.03 "Hg8 mi
6:51 AM43 °FOvercast.22 mph71%29.97 "Hg8 mi
5:51 AM46 °FPassing clouds.18 mph68%29.90 "Hg9 mi
4:51 AM51 °FClear.20 mph61%29.83 "Hg10 mi
3:51 AM51 °FPassing clouds.10 mph63%29.79 "Hg10 mi
2:51 AM53 °FPassing clouds.13 mph59%29.77 "Hg10 mi
1:51 AM54 °FPartly cloudy.15 mph57%29.78 "Hg10 mi
12:51 AM54 °FPartly cloudy.20 mph55%29.78 "Hg10 mi
11:51 PM
Jan 28
52 °FMostly cloudy.16 mph55%29.81 "Hg10 mi
Weather by CustomWeather, © 2014

See weather overviewHow to use our weather pages